Tampico, México

10:54 PM CDT en Julio 20, 2018 (GMT -0500)
Gen Francisco Javier Mina

Tiempo Historia de MMTM - Enero, 2018

Change the Weather History Date:

Sábado, Enero 13, 2018

  Actual Average Record
Temperature  
Temperatura media 62 ° F -  
Temperatura máxima 72 ° F 73 ° F 85 ° F (2014)
Temperatura mínima 51 ° F 57 ° F 46 ° F (1997)
Degree Days  
Grados día de calefacción 4    
Growing Degree Days 12 (Base 50)    
Moisture  
Punto de rocío 49 ° F    
Average Humidity 60    
Maximum Humidity 82    
Minimum Humidity 32    
Precipitación  
Precipitación 0.00 pul 0.02 pul - ()
Presión al nivel del mar  
Presión al nivel del mar 30.43 pul    
Viento  
Velocidad del viento 7 mph ()    
Velocidad máxima del viento 17 mph    
Max Gust Speed -    
Visibilidad 8.4 Millas    
Eventos      
Averages and records for this station are not official NWS values.
T = Trace of Precipitation, MM = Missing Value Source: Averaged Metar Reports

Daily Weather History Graph

Daily Weather History Graph

Search for Another Location

Airport or City:

Astronomía

Jan. 13, 2018 Salida Puesta
Hora real 7:13 AM CST 6:07 PM CST
Crepúsculo civil 6:49 AM CST 6:31 PM CST
Crepúsculo náutico 6:21 AM CST 6:58 PM CST
Crepúsculo astronómico 5:54 AM CST 7:26 PM CST
Luna 4:21 AM CST (1/13) 3:40 PM CST (1/13)
Horas de luz 11h 42m
Horas de luz
10h 54m
Creciente menguante, 10% of the Moon is Illuminated
Ene 13
Creciente menguante
Ene 16
Nueva
Ene 24
Cuarto creciente
Ene 31
Luna llena
Feb 7
Cuarto menguante

Hourly Weather History & Observations

Hora (CST) Temp. Punto de rocío Humedad Presión Visibilidad Wind Dir Velocidad del viento Velocidad de ráfagas Precip Eventos Condiciones
2:45 AM 55 ° F 36 ° F 37% 30.29 pul 6 mi Norte 6.7 mph - -  
5:05 AM 51.8 ° F 41.0 ° F 67% 30.30 pul 7.0 mi Norte - - N/A   Despejado
5:44 AM 53 ° F 34 ° F 36% 30.35 pul 6 mi Norte 6.7 mph - -  
5:44 AM 53.6 ° F 39.2 ° F 58% 30.32 pul 7.0 mi Norte - - N/A   Despejado
6:49 AM 53.6 ° F 39.2 ° F 58% 30.36 pul 7.0 mi Norte - - N/A   Despejado
7:48 AM 57.2 ° F 44.6 ° F 63% 30.40 pul 7.0 mi Norte - - N/A   Nubes dispersas
8:40 AM 58 ° F 42 ° F 43% 30.46 pul 16 mi Norte 8.9 mph - -   Muy nublado
8:47 AM 60.8 ° F 48.2 ° F 63% 30.42 pul 7.0 mi Norte - - N/A   Muy nublado
9:47 AM 62.6 ° F 50.0 ° F 63% 30.46 pul 7.0 mi Norte - - N/A   Muy nublado
10:44 AM 64.4 ° F 50.0 ° F 59% 30.47 pul 7.0 mi Norte - - N/A   Muy nublado
11:40 AM 70 ° F 47 ° F 32% 30.51 pul 16 mi Norte 11.2 mph - -   Muy nublado
11:46 AM 66.2 ° F 51.8 ° F 60% 30.45 pul 8.0 mi Norte - - N/A   Muy nublado
12:50 PM 69.8 ° F 53.6 ° F 56% 30.45 pul 8.0 mi Norte - - N/A   Muy nublado
2:40 PM 72 ° F 49 ° F 34% 30.45 pul 16 mi NE 11.2 mph - -   Parcialmente nublado
2:59 PM 68.0 ° F 51.8 ° F 56% 30.41 pul 8.0 mi Norte 17.3 mph - N/A   Nubes dispersas
4:44 PM 68.0 ° F 55.4 ° F 64% 30.43 pul 8.0 mi Norte - - N/A   Muy nublado
5:40 PM 66 ° F 53 ° F 53% 30.48 pul 15 mi NNE 11.2 mph - -   Nubes dispersas
5:47 PM 64.4 ° F 53.6 ° F 68% 30.38 pul 8.0 mi Norte - - N/A   Muy nublado
6:47 PM 62.6 ° F 55.4 ° F 77% 30.46 pul 7.0 mi Norte - - N/A   Muy nublado
7:40 PM - - N/A% 30.47 pul 7.0 mi Norte - - N/A   Muy nublado
8:45 PM 62 ° F 56 ° F 74% 30.52 pul 6 mi Norte 4.5 mph - -  
8:51 PM 62.6 ° F 55.4 ° F 77% 30.38 pul 7.0 mi Norte - - N/A   Muy nublado
9:42 PM 60.8 ° F 55.4 ° F 82% 30.49 pul 7.0 mi Norte - - N/A   Nubes dispersas
10:49 PM 59.0 ° F 53.6 ° F 82% 30.48 pul 7.0 mi Norte - - N/A   Nubes dispersas
11:45 PM 59 ° F 54 ° F 79% 30.51 pul 6 mi Norte 6.7 mph - -